TimeEST,TemperatureF,Dew PointF,Humidity,Sea Level PressureIn,VisibilityMPH,Wind Direction,Wind SpeedMPH,Gust SpeedMPH,PrecipitationIn,Events,Conditions,WindDirDegrees,DateUTC
12:15 AM,0.3,-9.4,64,30.08,10.0,West,13.8,26.5,N/A,,Clear,280,2013-01-03 05:15:00
12:35 AM,0.5,-9.4,63,30.08,10.0,West,13.8,23.0,N/A,,Clear,270,2013-01-03 05:35:00
12:55 AM,0.3,-9.6,63,30.09,10.0,West,18.4,29.9,N/A,,Clear,280,2013-01-03 05:55:00
1:15 AM,0.3,-9.6,63,30.09,10.0,West,17.3,26.5,N/A,,Clear,280,2013-01-03 06:15:00
1:35 AM,0.3,-9.4,64,30.10,10.0,West,15.0,26.5,N/A,,Clear,280,2013-01-03 06:35:00
2:15 AM,0.3,-9.6,63,30.10,10.0,West,15.0,29.9,N/A,,Clear,280,2013-01-03 07:15:00
2:35 AM,0.5,-9.6,63,30.11,10.0,West,12.7,23.0,N/A,,Clear,280,2013-01-03 07:35:00
2:55 AM,0.5,-9.6,63,30.10,10.0,WNW,12.7,20.7,N/A,,Clear,290,2013-01-03 07:55:00
3:15 AM,0.5,-9.9,62,30.10,10.0,West,11.5,20.7,N/A,,Clear,280,2013-01-03 08:15:00
3:35 AM,0.9,-9.9,61,30.09,10.0,West,15.0,20.7,N/A,,Clear,280,2013-01-03 08:35:00
3:55 AM,1.2,-9.8,60,30.08,10.0,West,15.0,25.3,N/A,,Clear,280,2013-01-03 08:55:00
4:15 AM,1.2,-9.9,60,30.08,10.0,West,16.1,20.7,N/A,,Clear,280,2013-01-03 09:15:00
4:35 AM,1.4,-9.9,59,30.07,10.0,WNW,11.5,19.6,N/A,,Clear,290,2013-01-03 09:35:00
4:55 AM,1.8,-9.9,58,30.07,10.0,West,13.8,25.3,N/A,,Clear,280,2013-01-03 09:55:00
5:15 AM,1.8,-9.9,58,30.07,10.0,West,15.0,24.2,N/A,,Clear,280,2013-01-03 10:15:00
5:35 AM,1.8,-9.8,59,30.08,10.0,WNW,10.4,17.3,N/A,,Clear,290,2013-01-03 10:35:00
5:55 AM,1.4,-9.9,59,30.08,10.0,West,12.7,16.1,N/A,,Clear,280,2013-01-03 10:55:00
6:15 AM,1.4,-9.9,59,30.09,10.0,WNW,13.8,18.4,N/A,,Clear,290,2013-01-03 11:15:00
6:35 AM,1.6,-9.8,59,30.08,10.0,WNW,10.4,17.3,N/A,,Clear,290,2013-01-03 11:35:00
6:55 AM,1.9,-9.6,59,30.09,10.0,West,12.7,21.9,N/A,,Clear,280,2013-01-03 11:55:00
7:15 AM,1.4,-9.8,60,30.10,10.0,WNW,10.4,-,N/A,,Clear,300,2013-01-03 12:15:00
7:35 AM,0.9,-9.8,61,30.10,10.0,WNW,13.8,19.6,N/A,,Clear,300,2013-01-03 12:35:00
7:55 AM,1.0,-9.8,61,30.10,10.0,WNW,10.4,17.3,N/A,,Clear,290,2013-01-03 12:55:00
8:15 AM,0.9,-9.9,61,30.09,10.0,WNW,13.8,20.7,N/A,,Clear,300,2013-01-03 13:15:00
8:35 AM,1.4,-9.8,60,30.09,10.0,WNW,9.2,17.3,N/A,,Clear,300,2013-01-03 13:35:00
8:55 AM,2.5,-9.4,58,30.09,10.0,WNW,5.8,-,N/A,,Clear,300,2013-01-03 13:55:00
9:15 AM,3.0,-9.0,57,30.08,10.0,WNW,13.8,18.4,N/A,,Clear,300,2013-01-03 14:15:00
9:35 AM,4.1,-8.7,56,30.08,10.0,WNW,12.7,18.4,N/A,,Clear,290,2013-01-03 14:35:00
9:55 AM,5.4,-8.3,53,30.08,10.0,WNW,10.4,-,N/A,,Clear,290,2013-01-03 14:55:00
10:15 AM,6.6,-7.4,53,30.08,10.0,WNW,12.7,-,N/A,,Clear,290,2013-01-03 15:15:00
10:35 AM,7.7,-6.7,52,30.07,10.0,WNW,11.5,17.3,N/A,,Clear,290,2013-01-03 15:35:00
10:55 AM,8.4,-6.5,51,30.06,10.0,WNW,11.5,19.6,N/A,,Clear,290,2013-01-03 15:55:00
11:15 AM,9.1,-6.3,50,30.05,10.0,WNW,10.4,-,N/A,,Clear,300,2013-01-03 16:15:00
11:35 AM,10.0,-5.6,49,30.05,10.0,WNW,12.7,18.4,N/A,,Clear,290,2013-01-03 16:35:00
11:55 AM,11.3,-5.1,48,30.04,10.0,WNW,9.2,16.1,N/A,,Clear,290,2013-01-03 16:55:00
12:15 PM,11.3,-4.9,48,30.02,10.0,WNW,9.2,-,N/A,,Clear,290,2013-01-03 17:15:00
12:35 PM,12.2,-5.1,46,30.01,10.0,West,10.4,20.7,N/A,,Clear,280,2013-01-03 17:35:00
12:55 PM,12.7,-5.1,45,30.01,10.0,WNW,11.5,19.6,N/A,,Clear,290,2013-01-03 17:55:00
1:15 PM,12.7,-5.6,44,30.01,10.0,WNW,6.9,-,N/A,,Clear,290,2013-01-03 18:15:00
1:35 PM,13.5,-5.6,43,30.01,10.0,WNW,6.9,-,N/A,,Clear,290,2013-01-03 18:35:00
1:55 PM,14.7,-5.4,41,30.00,10.0,West,11.5,-,N/A,,Clear,280,2013-01-03 18:55:00
2:15 PM,14.9,-5.8,40,29.99,10.0,West,8.1,-,N/A,,Scattered Clouds,270,2013-01-03 19:15:00
2:35 PM,15.4,-6.0,38,29.98,10.0,WNW,3.5,-,N/A,,Mostly Cloudy,290,2013-01-03 19:35:00
2:55 PM,16.2,-7.2,35,29.98,10.0,West,4.6,-,N/A,,Mostly Cloudy,280,2013-01-03 19:55:00
3:15 PM,16.2,-6.5,36,29.98,10.0,West,9.2,16.1,N/A,,Scattered Clouds,270,2013-01-03 20:15:00
3:35 PM,14.7,-6.3,39,29.98,10.0,West,9.2,-,N/A,,Clear,270,2013-01-03 20:35:00
3:55 PM,14.9,-5.8,40,29.97,10.0,West,6.9,-,N/A,,Mostly Cloudy,280,2013-01-03 20:55:00
4:15 PM,14.5,-5.4,41,29.97,10.0,West,10.4,17.3,N/A,,Mostly Cloudy,260,2013-01-03 21:15:00
4:35 PM,14.0,-6.2,41,29.97,10.0,Calm,Calm,-,N/A,,Scattered Clouds,0,2013-01-03 21:35:00
4:55 PM,13.6,-6.0,41,29.97,10.0,West,8.1,-,N/A,,Clear,270,2013-01-03 21:55:00
5:15 PM,13.5,-5.6,43,29.98,10.0,West,12.7,17.3,N/A,,Clear,270,2013-01-03 22:15:00
5:35 PM,13.1,-6.0,42,29.98,10.0,West,6.9,-,N/A,,Clear,270,2013-01-03 22:35:00
5:55 PM,10.8,-4.5,50,29.98,10.0,East,3.5,-,N/A,,Scattered Clouds,90,2013-01-03 22:55:00
6:15 PM,8.2,-3.8,58,29.98,10.0,Calm,Calm,-,N/A,,Mostly Cloudy,0,2013-01-03 23:15:00
6:35 PM,8.8,-4.0,56,29.99,10.0,Calm,Calm,-,N/A,,Scattered Clouds,0,2013-01-03 23:35:00
6:55 PM,8.8,-4.0,56,30.00,10.0,West,5.8,-,N/A,,Clear,270,2013-01-03 23:55:00
7:15 PM,10.4,-4.4,51,29.99,10.0,NNW,3.5,-,N/A,,Scattered Clouds,340,2013-01-04 00:15:00
7:35 PM,9.3,-4.5,54,29.99,10.0,Calm,Calm,-,N/A,,Scattered Clouds,0,2013-01-04 00:35:00
7:55 PM,8.8,-4.0,56,29.99,10.0,Calm,Calm,-,N/A,,Mostly Cloudy,0,2013-01-04 00:55:00
8:15 PM,7.5,-3.3,61,29.99,10.0,WNW,5.8,-,N/A,,Mostly Cloudy,300,2013-01-04 01:15:00
8:35 PM,7.2,-3.1,63,29.98,10.0,WNW,4.6,-,N/A,,Scattered Clouds,290,2013-01-04 01:35:00
8:55 PM,6.4,-3.1,65,29.98,10.0,WNW,3.5,-,N/A,,Scattered Clouds,290,2013-01-04 01:55:00
9:15 PM,5.7,-3.1,67,29.98,10.0,Calm,Calm,-,N/A,,Clear,0,2013-01-04 02:15:00
9:35 PM,4.6,-3.1,70,29.98,10.0,Calm,Calm,-,N/A,,Clear,0,2013-01-04 02:35:00
9:55 PM,2.8,-2.4,79,29.98,10.0,Calm,Calm,-,N/A,,Clear,0,2013-01-04 02:55:00
10:15 PM,1.6,-3.5,79,29.98,10.0,Calm,Calm,-,N/A,,Clear,0,2013-01-04 03:15:00
10:35 PM,0.1,-4.0,83,29.98,10.0,Calm,Calm,-,N/A,,Clear,0,2013-01-04 03:35:00
10:55 PM,-0.0,-3.8,84,29.97,10.0,Calm,Calm,-,N/A,,Clear,0,2013-01-04 03:55:00
11:15 PM,-0.8,-4.0,86,29.96,10.0,Calm,Calm,-,N/A,,Clear,0,2013-01-04 04:15:00
11:35 PM,-1.3,-4.4,87,29.96,10.0,Calm,Calm,-,N/A,,Scattered Clouds,0,2013-01-04 04:35:00
11:55 PM,-1.5,-4.4,88,29.94,10.0,Calm,Calm,-,N/A,,Mostly Cloudy,0,2013-01-04 04:55:00